Weather History for Jefferson, NC

Change the Weather History Date:

Tuesday, February 26, 2013

  Actual Average Record
Temperature  
Mean Temperature 32 °F -  
Max Temperature 39 °F 47 °F 71 °F (1977)
Min Temperature 25 °F 25 °F 3 °F (1967)
Degree Days  
Heating Degree Days 33    
Moisture  
Dew Point 30 °F    
Average Humidity 91    
Maximum Humidity 97    
Minimum Humidity 64    
Precipitation  
Precipitation 1.26 in - - ()
Sea Level Pressure  
Sea Level Pressure 29.74 in    
Wind  
Wind Speed 3 mph (SE)    
Max Wind Speed 14 mph    
Max Gust Speed 20 mph    
Visibility 3 miles    
Events Fog , Rain , Snow    
Averages and records for this station are not official NWS values.
T = Trace of Precipitation, MM = Missing Value Source: NWS Daily Summary

Daily Weather History Graph

Daily Weather History Graph

Search for Another Location

Airport:

Trip Planner

Search our weather history database for the weather conditions in past years. The results will help you decide how hot, cold, wet, or windy it might be!

Date:

Astronomy

Feb. 26, 2013 Rise Set
Actual Time 6:59 AM EST 6:17 PM EST
Civil Twilight 6:33 AM EST 6:43 PM EST
Nautical Twilight 6:03 AM EST 7:13 PM EST
Astronomical Twilight 5:34 AM EST 7:43 PM EST
Moon 7:29 PM EST 7:04 AM EST
Length of Visible Light 12h 09m
Length of Day
11h 17m
Full, 99% of the Moon is Illuminated
Feb 26
Full
Mar 4
Last Quarter
Mar 11
New
Mar 19
First Quarter
Mar 27
Full

Hourly Weather History & Observations

Time (EST) Temp. Windchill Dew Point Humidity Pressure Visibility Wind Dir Wind Speed Gust Speed Precip Events Conditions
12:15 AM 28.4 °F 24.6 °F 18.5 °F 66% 30.03 in 10.0 mi SSE 3.5 mph - N/A   Overcast
12:35 AM 28.4 °F 22.2 °F 18.7 °F 67% 30.02 in 10.0 mi SE 5.8 mph - N/A   Overcast
12:55 AM 28.2 °F - 18.3 °F 66% 30.01 in 10.0 mi Calm Calm - N/A   Overcast
1:15 AM 28.4 °F 24.6 °F 18.1 °F 65% 29.99 in 10.0 mi SE 3.5 mph - N/A   Overcast
1:35 AM 28.4 °F - 18.1 °F 65% 29.98 in 10.0 mi Calm Calm - N/A   Overcast
1:55 AM 28.4 °F - 17.8 °F 64% 29.97 in 10.0 mi Calm Calm - N/A   Overcast
2:15 AM 28.8 °F - 18.5 °F 66% 29.97 in 10.0 mi Calm Calm - N/A   Overcast
2:35 AM 28.4 °F 23.3 °F 18.7 °F 67% 29.97 in 10.0 mi SSE 4.6 mph - N/A   Overcast
2:55 AM 27.0 °F 23.0 °F 21.2 °F 79% 29.97 in 5.0 mi SE 3.5 mph - N/A   Overcast
3:15 AM 25.7 °F 21.5 °F 22.6 °F 88% 29.94 in 3.0 mi SE 3.5 mph - N/A   Overcast
3:35 AM 25.7 °F - 23.7 °F 92% 29.94 in 3.0 mi Calm Calm - N/A   Overcast
3:55 AM 25.7 °F 19.0 °F 24.1 °F 94% 29.94 in 2.5 mi East 5.8 mph - N/A   Overcast
4:15 AM 26.2 °F 19.6 °F 24.6 °F 94% 29.92 in 2.0 mi East 5.8 mph - N/A   Overcast
4:35 AM 26.4 °F 22.4 °F 24.8 °F 94% 29.92 in 3.0 mi ESE 3.5 mph - N/A   Overcast
4:55 AM 27.1 °F 23.2 °F 25.7 °F 94% 29.93 in 3.0 mi SE 3.5 mph - N/A   Overcast
5:15 AM 27.3 °F 20.9 °F 26.1 °F 95% 29.93 in 2.5 mi SE 5.8 mph - N/A   Overcast
5:35 AM 27.3 °F - 26.1 °F 95% 29.92 in 2.5 mi Calm Calm - 0.01 in   Overcast
5:55 AM 27.7 °F 21.3 °F 26.6 °F 96% 29.90 in 4.0 mi East 5.8 mph - 0.02 in   Overcast
6:15 AM 27.5 °F 22.2 °F 26.4 °F 96% 29.90 in 4.0 mi ESE 4.6 mph - 0.02 in   Overcast
6:35 AM 27.9 °F - 26.6 °F 95% 29.90 in 2.5 mi Calm Calm - 0.04 in Snow Light Snow
6:55 AM 28.4 °F - 27.1 °F 95% 29.88 in 3.0 mi Calm Calm - 0.08 in Snow Light Snow
7:15 AM 29.1 °F 25.4 °F 27.7 °F 94% 29.86 in 2.5 mi NNE 3.5 mph - 0.04 in Snow Light Snow
7:35 AM 29.8 °F - 28.6 °F 95% 29.87 in 2.5 mi Calm Calm - 0.09 in Snow Light Snow
7:55 AM 31.5 °F - 30.4 °F 96% 29.86 in 2.5 mi Calm Calm - 0.15 in Snow Light Snow
8:15 AM 32.4 °F - 31.6 °F 97% 29.85 in 2.5 mi Calm Calm - 0.06 in Snow Light Snow
8:35 AM 33.1 °F 28.7 °F 32.0 °F 96% 29.85 in 1.5 mi ESE 4.6 mph - 0.11 in Snow Light Snow
8:55 AM 33.3 °F - 32.0 °F 95% 29.83 in 2.0 mi Calm Calm - 0.14 in Snow Light Snow
9:15 AM 33.8 °F 25.8 °F 32.4 °F 94% 29.82 in 4.0 mi East 10.4 mph - N/A   Overcast
9:55 AM 34.7 °F 28.1 °F 33.3 °F 94% 29.80 in 1.5 mi ESE 8.1 mph - 0.10 in Snow Light Snow
10:15 AM 34.5 °F 26.2 °F 33.1 °F 94% 29.77 in 2.0 mi East 11.5 mph 19.6 mph 0.05 in Snow Light Snow
10:35 AM 33.4 °F 29.1 °F 32.2 °F 95% 29.77 in 0.8 mi SW 4.6 mph - 0.14 in Snow Light Snow
10:55 AM 33.4 °F 27.3 °F 32.4 °F 96% 29.75 in 1.0 mi SSE 6.9 mph - 0.26 in Snow Light Snow
11:15 AM 33.6 °F 30.6 °F 32.4 °F 95% 29.75 in 1.2 mi WSW 3.5 mph - 0.07 in Snow Light Snow
11:35 AM 33.3 °F - 32.0 °F 95% 29.74 in 1.2 mi Calm Calm - 0.15 in   Overcast
11:55 AM 34.2 °F - 32.9 °F 95% 29.73 in 1.5 mi Calm Calm - 0.20 in Snow Light Snow
12:15 PM 34.7 °F 25.5 °F 33.1 °F 94% 29.71 in 1.2 mi ESE 13.8 mph 19.6 mph 0.01 in   Overcast
12:35 PM 34.3 °F 30.2 °F 32.5 °F 93% 29.68 in 1.2 mi East 4.6 mph - 0.03 in Rain Rain
12:55 PM 34.5 °F 26.7 °F 32.9 °F 94% 29.67 in 1.2 mi East 10.4 mph - 0.05 in   Overcast
1:15 PM 34.7 °F 31.8 °F 33.1 °F 94% 29.64 in 1.2 mi ESE 3.5 mph - 0.03 in Rain Rain
1:35 PM 34.7 °F 30.6 °F 33.1 °F 94% 29.63 in 1.2 mi ESE 4.6 mph - 0.05 in Rain Rain
1:55 PM 34.7 °F 31.8 °F 33.1 °F 94% 29.63 in 1.0 mi SW 3.5 mph - 0.10 in Snow Snow
2:15 PM 34.0 °F - 32.5 °F 94% 29.61 in 1.0 mi Calm Calm - 0.03 in Rain Rain
2:35 PM 33.8 °F - 32.2 °F 94% 29.60 in 0.8 mi Calm Calm - 0.04 in Rain Rain
2:55 PM 33.6 °F 28.4 °F 32.2 °F 94% 29.61 in 1.0 mi WSW 5.8 mph - 0.16 in   Overcast
3:15 PM 34.3 °F - 33.1 °F 95% 29.60 in 1.8 mi Calm Calm - N/A Rain Light Rain
3:35 PM 34.2 °F 30.0 °F 32.9 °F 95% 29.58 in 1.0 mi SSE 4.6 mph - N/A   Drizzle
3:55 PM 34.3 °F 31.4 °F 33.1 °F 95% 29.57 in 0.2 mi SW 3.5 mph - N/A Rain Rain
4:15 PM 34.9 °F - 33.8 °F 96% 29.55 in 0.2 mi Calm Calm - N/A Rain Light Rain
4:35 PM 35.1 °F - 33.8 °F 95% 29.55 in 0.2 mi Calm Calm - N/A Rain Light Rain
4:55 PM 35.6 °F - 34.2 °F 94% 29.54 in 0.2 mi Calm Calm - N/A Rain Rain
5:15 PM 35.6 °F 32.8 °F 34.5 °F 96% 29.53 in 0.2 mi South 3.5 mph - N/A Snow Light Snow
5:35 PM 35.8 °F 33.0 °F 34.7 °F 96% 29.53 in 0.2 mi South 3.5 mph - N/A Rain Light Rain
5:55 PM 35.8 °F - 34.7 °F 96% 29.53 in 0.2 mi Calm Calm - N/A Snow Light Snow
6:15 PM 35.6 °F - 34.7 °F 97% 29.55 in 0.2 mi Calm Calm - N/A Fog Fog
6:35 PM 35.6 °F - 34.5 °F 96% 29.55 in 0.2 mi Calm Calm - N/A Snow Light Snow
6:55 PM 35.4 °F - 34.2 °F 95% 29.55 in 0.2 mi Calm Calm - N/A Fog Fog
7:15 PM 35.1 °F - 34.0 °F 96% 29.56 in 0.2 mi Calm Calm - N/A Fog Fog
7:35 PM 34.9 °F 32.0 °F 33.8 °F 96% 29.56 in 0.2 mi SSE 3.5 mph - N/A Fog Fog
7:55 PM 35.1 °F 32.2 °F 34.0 °F 96% 29.57 in 0.2 mi South 3.5 mph - N/A Fog Fog
8:15 PM 35.2 °F 32.4 °F 34.2 °F 96% 29.57 in 0.8 mi South 3.5 mph - N/A   Overcast
8:35 PM 34.9 °F - 33.8 °F 96% 29.56 in 2.0 mi Calm Calm - N/A   Overcast
8:55 PM 34.5 °F - 33.4 °F 96% 29.56 in 0.2 mi Calm Calm - N/A Fog Fog
9:15 PM 34.3 °F - 33.3 °F 96% 29.57 in 0.2 mi Calm Calm - N/A Fog Fog
9:35 PM 34.9 °F - 33.8 °F 96% 29.58 in 1.0 mi Calm Calm - N/A   Overcast
10:15 PM 38.5 °F 30.7 °F 37.4 °F 96% 29.59 in 10.0 mi WNW 12.7 mph 16.1 mph N/A   Overcast
10:35 PM 39.2 °F 32.0 °F 37.9 °F 95% 29.59 in 10.0 mi WNW 11.5 mph 17.3 mph N/A   Overcast
10:55 PM 39.2 °F 33.0 °F 37.4 °F 93% 29.58 in 10.0 mi WNW 9.2 mph 17.3 mph N/A   Overcast
11:15 PM 38.5 °F 32.1 °F 36.1 °F 91% 29.59 in 10.0 mi WNW 9.2 mph 17.3 mph N/A   Overcast
11:35 PM 38.3 °F 31.4 °F 35.1 °F 88% 29.58 in 10.0 mi WNW 10.4 mph - N/A   Overcast
11:55 PM 37.8 °F 32.5 °F 34.0 °F 86% 29.58 in 10.0 mi WNW 6.9 mph - N/A   Overcast